Torna al catalogo

STARLINK-37412

AttivoComunicazioniVLEO
NORAD 69248·PAYLOAD·🇺🇸 United States

Lanciato May 29, 2026 da Cape Canaveral Space Force Station

Loading…

Prossimi Passaggi (prossime 24 ore)

TLE

AggiornatoSource: CelesTrak SupGP

Epoca: Sep 14, 2026, 14:36 UTC

1 69248C 26117L   26257.60881944  .00056164  00000+0  16591-2 0  2570
2 69248  53.1568 181.1433 0001158 104.2933 285.1480 15.34368162    15

Traccia STARLINK-37412 in tempo reale con AllMySat

Download on the App Store